New Haven, CT

3:28 AM EDT on June 25, 2017 (GMT -0400)
Tweed-New Haven

Weather History for KHVN - February, 2012

Change the Weather History Date:

Sunday, February 12, 2012

  Actual Average Record
Temperature  
Mean Temperature 26 °F -  
Max Temperature 32 °F 37 °F 34 °F (2015)
Min Temperature 19 °F 24 °F 8 °F (2014)
Degree Days  
Heating Degree Days 40    
Moisture  
Dew Point 8 °F    
Average Humidity 46    
Maximum Humidity 54    
Minimum Humidity 38    
Precipitation  
Precipitation 0.00 in - - ()
Sea Level Pressure  
Sea Level Pressure 29.79 in    
Wind  
Wind Speed 13 mph (NW)    
Max Wind Speed 20 mph    
Max Gust Speed 29 mph    
Visibility 10 miles    
Events      
Averages and records for this station are not official NWS values.
T = Trace of Precipitation, MM = Missing Value Source: NWS Daily Summary

Daily Weather History Graph

Daily Weather History Graph

Search for Another Location

Airport or City:

Trip Planner

Search our weather history database for the weather conditions in past years. The results will help you decide how hot, cold, wet, or windy it might be!

Date:

Astronomy

Feb. 12, 2012 Rise Set
Actual Time 6:50 AM EST 5:21 PM EST
Civil Twilight 6:22 AM EST 5:49 PM EST
Nautical Twilight 5:49 AM EST 6:22 PM EST
Astronomical Twilight 5:17 AM EST 6:54 PM EST
Moon 11:20 PM EST (2/12) 9:03 AM EST (2/12)
Length of Visible Light 11h 27m
Length of Day
10h 30m
Waning Gibbous, 72% of the Moon is Illuminated
Feb 12
Waning Gibbous
Feb 14
Last Quarter
Feb 21
New
Feb 29
First Quarter
Mar 8
Full

Hourly Weather History & Observations

Time (EST) Temp. Windchill Dew Point Humidity Pressure Visibility Wind Dir Wind Speed Gust Speed Precip Events Conditions
12:53 AM 30.0 °F 19.1 °F 15.1 °F 54% 29.65 in 10.0 mi NNW 15.0 mph 21.9 mph N/A   Scattered Clouds
1:53 AM 27.0 °F 14.3 °F 10.9 °F 51% 29.68 in 10.0 mi NNW 17.3 mph 27.6 mph N/A   Partly Cloudy
2:53 AM 24.1 °F 11.0 °F 9.0 °F 53% 29.70 in 10.0 mi NNW 16.1 mph 28.8 mph N/A   Partly Cloudy
3:53 AM 21.9 °F 6.9 °F 6.1 °F 51% 29.73 in 10.0 mi NNW 19.6 mph 27.6 mph N/A   Scattered Clouds
4:53 AM 21.0 °F 8.6 °F 3.0 °F 46% 29.76 in 10.0 mi NW 12.7 mph 19.6 mph N/A   Clear
5:53 AM 19.0 °F 8.2 °F -2.9 °F 38% 29.78 in 10.0 mi NNW 9.2 mph 21.9 mph N/A   Clear
6:53 AM 19.0 °F 6.1 °F 1.9 °F 47% 29.80 in 10.0 mi NW 12.7 mph 21.9 mph N/A   Clear
7:53 AM 19.9 °F 11.1 °F 1.9 °F 46% 29.81 in 10.0 mi NW 6.9 mph 16.1 mph N/A   Clear
8:53 AM 21.0 °F 8.1 °F 3.0 °F 46% 29.82 in 10.0 mi NW 13.8 mph 20.7 mph N/A   Clear
9:53 AM 21.9 °F 11.7 °F 3.0 °F 44% 29.82 in 10.0 mi NW 9.2 mph - N/A   Clear
10:53 AM 27.0 °F 18.7 °F 5.0 °F 39% 29.80 in 10.0 mi WNW 8.1 mph - N/A   Mostly Cloudy
11:53 AM 28.9 °F 19.8 °F 8.1 °F 41% 29.77 in 10.0 mi WNW 10.4 mph 21.9 mph N/A   Mostly Cloudy
12:53 PM 30.9 °F 22.2 °F 10.9 °F 43% 29.74 in 10.0 mi WNW 10.4 mph 21.9 mph N/A   Mostly Cloudy
1:53 PM 32.0 °F 22.5 °F 10.9 °F 42% 29.73 in 10.0 mi NW 12.7 mph 27.6 mph N/A   Mostly Cloudy
2:53 PM 32.0 °F 24.2 °F 14.0 °F 48% 29.72 in 10.0 mi WNW 9.2 mph 17.3 mph N/A   Mostly Cloudy
3:53 PM 32.0 °F 22.5 °F 16.0 °F 52% 29.74 in 10.0 mi NW 12.7 mph 21.9 mph N/A   Mostly Cloudy
4:53 PM 32.0 °F 24.8 °F 14.0 °F 48% 29.75 in 10.0 mi NW 8.1 mph 20.7 mph N/A   Mostly Cloudy
5:53 PM 30.0 °F 22.4 °F 14.0 °F 51% 29.79 in 10.0 mi NW 8.1 mph 19.6 mph 0.00 in   Partly Cloudy
6:53 PM 30.0 °F 21.1 °F 9.0 °F 41% 29.83 in 10.0 mi NW 10.4 mph 26.5 mph N/A   Partly Cloudy
7:53 PM 28.0 °F 15.3 °F 8.1 °F 43% 29.86 in 10.0 mi NW 18.4 mph 28.8 mph N/A   Mostly Cloudy
8:53 PM 27.0 °F 17.3 °F 5.0 °F 39% 29.90 in 10.0 mi NW 10.4 mph 21.9 mph N/A   Clear
9:53 PM 26.1 °F 15.6 °F 6.1 °F 43% 29.93 in 10.0 mi NW 11.5 mph 18.4 mph N/A   Clear
10:53 PM 25.0 °F 14.8 °F 6.1 °F 45% 29.95 in 10.0 mi NW 10.4 mph 17.3 mph N/A   Clear
11:53 PM 25.0 °F 18.1 °F 6.1 °F 45% 29.94 in 10.0 mi WSW 5.8 mph - N/A   Scattered Clouds